Flag for Spain Weather past 2 weeks in Arrecife, Canary Islands, Spain

Now
66 °F

Passing clouds.


Feels Like: 66 °F
Forecast: 62 / 65 °F
Wind: 25 mph from North

Location: Lanzarote / Aeropuerto

Current Time: Feb 27, 2015 at 4:24:16 PM

Latest Report: Feb 27, 2015 at 4:00 PM


Visibility: N/A

Pressure: 30.27 "Hg

Humidity: 60%

Dew point: 52 °F

Location of ArrecifeLocation

Historic Weather in Arrecife — Graph

°F

Arrecife temperature yesterday

Maximum temperature yesterday: 70 °F (at 12:00 PM)
Minimum temperature yesterday: 59 °F (at 6:00 AM)
Average temperature yesterday: 64 °F

Past Weeks' High & Low Weather Summary

 TemperatureHumidityPressure
High70 °F (Feb 15, 1:00 PM)94% (Feb 16, 6:00 AM)30.36 "Hg (Feb 16, 6:00 AM)
Low55 °F (Feb 12, 11:00 PM)43% (Feb 13, 1:00 PM)30.07 "Hg (Feb 18, 2:30 PM)
Average63 °F69%30.22 "Hg
* Reported Feb 12 3:00 PM — Feb 27 3:00 PM, Arrecife, Weather by CustomWeather, © 2015

Note: Actual official high and low records may vary slightly from our data, if they occured in-between our weather recording intervals... More about our weather records

Advertising

Arrecife weather history for previous 24 hours

 ConditionsComfort  
Time TempWeatherWind HumidityBarometerVisibility
3:00 PM
Fri, Feb 27
68 °FPassing clouds.23 mph56%30.30 "HgN/A
2:30 PM68 °FPassing clouds.25 mph60%30.30 "HgN/A
2:00 PM68 °FPassing clouds.22 mph60%30.30 "HgN/A
1:30 PM68 °FScattered clouds.21 mph64%30.33 "HgN/A
1:00 PM66 °FScattered clouds.23 mph64%30.33 "HgN/A
12:30 PM66 °FScattered clouds.20 mph64%30.36 "HgN/A
12:00 PM66 °FPartly sunny.21 mph68%30.36 "HgN/A
11:30 AM66 °FPartly sunny.17 mph68%30.36 "HgN/A
11:00 AM66 °FScattered clouds.21 mph68%30.36 "HgN/A
10:30 AM64 °FScattered clouds.22 mph68%30.33 "HgN/A
10:00 AM64 °FScattered clouds.20 mph73%30.33 "HgN/A
9:30 AM63 °FScattered clouds.21 mph77%30.33 "HgN/A
9:00 AM61 °FPartly sunny.10 mph83%30.33 "HgN/A
8:30 AM61 °FPartly sunny.14 mph83%30.33 "HgN/A
8:00 AM61 °FScattered clouds.18 mph77%30.30 "HgN/A
7:30 AM61 °FScattered clouds.15 mph77%30.30 "HgN/A
7:00 AM61 °FPassing clouds.15 mph72%30.30 "HgN/A
6:30 AM61 °FPassing clouds.17 mph77%30.27 "HgN/A
6:00 AM61 °FPassing clouds.20 mph77%30.27 "HgN/A
1:00 AM61 °FPassing clouds.15 mph77%30.30 "HgN/A
12:30 AM61 °FPassing clouds.14 mph77%30.30 "HgN/A
12:00 AM61 °FPassing clouds.14 mph77%30.30 "HgN/A
11:30 PM
Thu, Feb 26
61 °FPassing clouds.14 mph77%30.30 "HgN/A
11:00 PM61 °FPassing clouds.15 mph83%30.33 "HgN/A
10:30 PM61 °FPassing clouds.15 mph83%30.33 "HgN/A
10:00 PM61 °FPassing clouds.17 mph77%30.33 "HgN/A
9:30 PM61 °FPassing clouds.18 mph83%30.30 "HgN/A
9:00 PM61 °FPassing clouds.20 mph83%30.30 "HgN/A
8:30 PM61 °FPassing clouds.22 mph83%30.30 "HgN/A
8:00 PM63 °FPassing clouds.24 mph77%30.27 "HgN/A
7:30 PM63 °FPassing clouds.29 mph73%30.27 "HgN/A
7:00 PM63 °FPassing clouds.25 mph73%30.27 "HgN/A
6:30 PM63 °FPassing clouds.26 mph73%30.27 "HgN/A
6:00 PM64 °FPassing clouds.25 mph68%30.24 "HgN/A
5:30 PM66 °FPassing clouds.22 mph64%30.24 "HgN/A
5:00 PM66 °FPassing clouds.24 mph64%30.24 "HgN/A
4:30 PM68 °FPassing clouds.24 mph60%30.24 "HgN/A
4:00 PM68 °FPassing clouds.25 mph60%30.24 "HgN/A
Weather by CustomWeather, © 2015

See weather overviewHow to use our weather pages